RYR99R LIEE-LIMJ

Flight info

Callsign RYR99R
Flight time 1h 16m
Altitude 30000
Route KOVAS DCT DEXUL DCT GIGGI DCT INDUM DCT UPDUT DCT CORSI DCT OKROK DCT AKUTI DCT TORTU M858 UNITA
Aircraft B738/M-SDE2E3FGHIRWXY/LB1

Departure

Time 2026-04-21 19:52
Airport Cagliari Elmas Airport (LIEE)

Arrival

Time 2026-04-21 21:09
Airport Genoa Cristoforo Colombo Airport (LIMJ)
Time Latitude Longitude Altitude Speed Heading
2026-04-21 19:40 39.24870 9.06121 17 ft 0 kts 229°
2026-04-21 19:45 39.24871 9.06122 17 ft 2 kts 228°
2026-04-21 19:45 39.24870 9.06131 19 ft 4 kts 147°
2026-04-21 19:45 39.24892 9.06115 17 ft 4 kts 154°
2026-04-21 19:45 39.24916 9.06098 20 ft 4 kts 146°
2026-04-21 19:46 39.24938 9.06077 20 ft 4 kts 138°
2026-04-21 19:46 39.24942 9.06072 19 ft 4 kts 136°
2026-04-21 19:46 39.24936 9.06080 20 ft 1 kts 136°
2026-04-21 19:48 39.24931 9.06088 19 ft 3 kts 121°
2026-04-21 19:48 39.24923 9.06116 18 ft 4 kts 110°
2026-04-21 19:48 39.24908 9.06170 17 ft 9 kts 112°
2026-04-21 19:49 39.24853 9.06244 17 ft 15 kts 146°
2026-04-21 19:49 39.24763 9.06320 17 ft 15 kts 147°
2026-04-21 19:49 39.24677 9.06391 16 ft 14 kts 148°
2026-04-21 19:49 39.24592 9.06459 16 ft 14 kts 147°
2026-04-21 19:50 39.24535 9.06507 16 ft 15 kts 147°
2026-04-21 19:50 39.24416 9.06589 16 ft 14 kts 170°
2026-04-21 19:50 39.24322 9.06560 18 ft 13 kts 199°
2026-04-21 19:50 39.24265 9.06529 17 ft 13 kts 219°
2026-04-21 19:51 39.24264 9.06456 17 ft 5 kts 310°
2026-04-21 19:51 39.24274 9.06444 17 ft 0 kts 317°
2026-04-21 19:51 39.24276 9.06441 17 ft 3 kts 317°
2026-04-21 19:52 39.24463 9.06223 15 ft 73 kts 318°
2026-04-21 19:52 39.25013 9.05585 19 ft 137 kts 318°
2026-04-21 19:52 39.25804 9.04672 387 ft 158 kts 317°
2026-04-21 19:52 39.26638 9.03677 1026 ft 167 kts 319°
2026-04-21 19:53 39.27725 9.03003 1502 ft 189 kts 352°
2026-04-21 19:53 39.29090 9.03034 2052 ft 199 kts
2026-04-21 19:53 39.30515 9.03261 2530 ft 212 kts
2026-04-21 19:53 39.32024 9.03473 2883 ft 224 kts
2026-04-21 19:54 39.33581 9.03670 3485 ft 227 kts
2026-04-21 19:54 39.35128 9.03831 4250 ft 225 kts
2026-04-21 19:54 39.36704 9.03976 5021 ft 224 kts
2026-04-21 19:54 39.38243 9.04105 5782 ft 225 kts
2026-04-21 19:55 39.39811 9.04227 6474 ft 226 kts
2026-04-21 19:55 39.41387 9.04344 7129 ft 228 kts
2026-04-21 19:55 39.42982 9.04461 7769 ft 230 kts
2026-04-21 19:55 39.44592 9.04577 8415 ft 233 kts
2026-04-21 19:56 39.46219 9.04700 9071 ft 237 kts
2026-04-21 19:56 39.47918 9.04896 9292 ft 260 kts
2026-04-21 19:56 39.49791 9.05143 9584 ft 279 kts
2026-04-21 19:56 39.51745 9.05407 10142 ft 286 kts
2026-04-21 19:57 39.53796 9.05681 10348 ft 307 kts
2026-04-21 19:57 39.55998 9.05972 10511 ft 329 kts
2026-04-21 19:57 39.58342 9.06313 10662 ft 349 kts
2026-04-21 19:57 39.60769 9.06681 10799 ft 367 kts
2026-04-21 19:58 39.63374 9.07046 10933 ft 384 kts
2026-04-21 19:58 39.66070 9.07435 11278 ft 393 kts
2026-04-21 19:58 39.68798 9.07834 11808 ft 397 kts
2026-04-21 19:58 39.71548 9.08238 12411 ft 398 kts
2026-04-21 19:59 39.74317 9.08646 12953 ft 402 kts
2026-04-21 19:59 39.77109 9.09058 13436 ft 407 kts
2026-04-21 19:59 39.79936 9.09475 13976 ft 410 kts
2026-04-21 19:59 39.82770 9.09894 14525 ft 412 kts
2026-04-21 20:00 39.85627 9.10317 15085 ft 414 kts
2026-04-21 20:00 39.88462 9.10739 15641 ft 416 kts
2026-04-21 20:00 39.91353 9.11166 16207 ft 419 kts
2026-04-21 20:00 39.94292 9.11601 16747 ft 422 kts
2026-04-21 20:01 39.97185 9.12030 17259 ft 425 kts
2026-04-21 20:01 40.00140 9.12469 17763 ft 429 kts
2026-04-21 20:01 40.03117 9.12912 18265 ft 432 kts
2026-04-21 20:01 40.06103 9.13356 18704 ft 434 kts
2026-04-21 20:02 40.09115 9.13805 19144 ft 436 kts
2026-04-21 20:02 40.12132 9.14256 19580 ft 439 kts
2026-04-21 20:02 40.15182 9.14711 20019 ft 442 kts
2026-04-21 20:02 40.18249 9.15169 20473 ft 444 kts
2026-04-21 20:03 40.21330 9.15629 20928 ft 446 kts
2026-04-21 20:03 40.24419 9.15874 21332 ft 445 kts 355°
2026-04-21 20:03 40.27500 9.15479 21741 ft 444 kts 347°
2026-04-21 20:03 40.30485 9.14459 22141 ft 443 kts 339°
2026-04-21 20:04 40.33414 9.13166 22534 ft 445 kts 338°
2026-04-21 20:04 40.36346 9.11863 22897 ft 447 kts 339°
2026-04-21 20:04 40.39307 9.10555 23259 ft 450 kts 339°
2026-04-21 20:04 40.42275 9.09257 23615 ft 452 kts 339°
2026-04-21 20:05 40.45268 9.07959 23912 ft 453 kts 339°
2026-04-21 20:05 40.48272 9.06663 24220 ft 455 kts 339°
2026-04-21 20:05 40.51288 9.05364 24538 ft 456 kts 339°
2026-04-21 20:05 40.54314 9.04062 24825 ft 458 kts 339°
2026-04-21 20:06 40.57344 9.02756 25094 ft 460 kts 339°
2026-04-21 20:06 40.60390 9.01443 25423 ft 460 kts 339°
2026-04-21 20:06 40.63398 9.00143 25697 ft 461 kts 339°
2026-04-21 20:06 40.66456 8.98821 25913 ft 463 kts 339°
2026-04-21 20:07 40.69513 8.97497 26108 ft 464 kts 339°
2026-04-21 20:07 40.72582 8.96167 26390 ft 463 kts 339°
2026-04-21 20:07 40.75640 8.94842 26737 ft 461 kts 339°
2026-04-21 20:07 40.78671 8.93526 27127 ft 459 kts 339°
2026-04-21 20:08 40.81697 8.92212 27537 ft 456 kts 338°
2026-04-21 20:08 40.84708 8.90901 27901 ft 454 kts 338°
2026-04-21 20:08 40.87703 8.89596 28225 ft 454 kts 338°
2026-04-21 20:08 40.90704 8.88287 28537 ft 453 kts 338°
2026-04-21 20:09 40.93689 8.86985 28886 ft 452 kts 338°
2026-04-21 20:09 40.96695 8.85758 29245 ft 453 kts 342°
2026-04-21 20:09 40.99809 8.85027 29582 ft 456 kts 351°
2026-04-21 20:09 41.02987 8.84901 29945 ft 458 kts 355°
2026-04-21 20:10 41.06189 8.84920 29935 ft 461 kts 356°
2026-04-21 20:10 41.12575 8.84935 29945 ft 457 kts 355°
2026-04-21 20:11 41.18935 8.84873 29950 ft 456 kts 355°
2026-04-21 20:11 41.25244 8.84504 29944 ft 451 kts 347°
2026-04-21 20:12 41.31219 8.82273 29938 ft 446 kts 341°
2026-04-21 20:12 41.37383 8.81259 29951 ft 454 kts 357°
2026-04-21 20:13 41.43632 8.81626 29945 ft 455 kts 358°
2026-04-21 20:13 41.49931 8.82036 29956 ft 455 kts 358°
2026-04-21 20:14 41.56281 8.82404 29952 ft 455 kts 358°
2026-04-21 20:14 41.62638 8.82744 29962 ft 455 kts 358°
2026-04-21 20:15 41.68897 8.83073 29964 ft 455 kts 358°
2026-04-21 20:15 41.75249 8.83414 29953 ft 454 kts 356°
2026-04-21 20:16 41.81547 8.83744 29969 ft 453 kts 359°
2026-04-21 20:16 41.87818 8.84074 29989 ft 452 kts 358°
2026-04-21 20:17 41.94176 8.84412 29959 ft 451 kts 356°
2026-04-21 20:17 42.00418 8.84748 29962 ft 450 kts 357°
2026-04-21 20:18 42.05623 8.85027 29968 ft 449 kts 356°
2026-04-21 20:18 42.12890 8.85414 29963 ft 447 kts 356°
2026-04-21 20:19 42.19051 8.85733 29954 ft 447 kts 358°
2026-04-21 20:19 42.25313 8.86080 29945 ft 446 kts 358°
2026-04-21 20:20 42.31480 8.86418 29924 ft 444 kts 356°
2026-04-21 20:20 42.37588 8.86746 29927 ft 443 kts 357°
2026-04-21 20:21 42.43836 8.87092 29936 ft 443 kts 357°
2026-04-21 20:21 42.49995 8.87420 29937 ft 444 kts 357°
2026-04-21 20:22 42.56177 8.87751 29947 ft 444 kts 357°
2026-04-21 20:22 42.65406 8.88261 29914 ft 429 kts 357°
2026-04-21 20:23 42.68318 8.88428 29947 ft 412 kts 356°
2026-04-21 20:23 42.71131 8.88585 29929 ft 397 kts 356°
2026-04-21 20:23 42.73839 8.88732 29923 ft 382 kts 356°
2026-04-21 20:23 42.76440 8.88873 29924 ft 368 kts 356°
2026-04-21 20:24 42.78955 8.89011 29923 ft 355 kts 355°
2026-04-21 20:24 42.81388 8.89145 29933 ft 347 kts 356°
2026-04-21 20:24 42.86242 8.89656 29963 ft 355 kts 358°
2026-04-21 20:25 42.91203 8.90273 29441 ft 365 kts 358°
2026-04-21 20:25 42.93718 8.90582 29056 ft 362 kts 358°
2026-04-21 20:25 42.96218 8.90886 28602 ft 359 kts 358°
2026-04-21 20:26 42.98702 8.91183 28170 ft 357 kts 358°
2026-04-21 20:26 43.01170 8.91475 27746 ft 355 kts 358°
2026-04-21 20:26 43.03629 8.91764 27325 ft 353 kts 358°
2026-04-21 20:26 43.06070 8.92050 26912 ft 352 kts 358°
2026-04-21 20:27 43.08503 8.92334 26521 ft 350 kts 358°
2026-04-21 20:27 43.10924 8.92618 26119 ft 348 kts 358°
2026-04-21 20:27 43.13336 8.92900 25722 ft 347 kts 358°
2026-04-21 20:27 43.15738 8.93182 25308 ft 346 kts 358°
2026-04-21 20:28 43.18104 8.93459 24907 ft 346 kts 358°
2026-04-21 20:28 43.20498 8.93741 24500 ft 345 kts 358°
2026-04-21 20:28 43.22889 8.94022 24102 ft 345 kts 358°
2026-04-21 20:28 43.25279 8.94293 23710 ft 344 kts 358°
2026-04-21 20:29 43.27663 8.94558 23272 ft 343 kts 358°
2026-04-21 20:29 43.30043 8.94822 22849 ft 343 kts 358°
2026-04-21 20:29 43.32420 8.95086 22394 ft 342 kts 358°
2026-04-21 20:29 43.34790 8.95351 21942 ft 342 kts 358°
2026-04-21 20:30 43.37154 8.95616 21499 ft 341 kts 358°
2026-04-21 20:30 43.39516 8.95884 21059 ft 340 kts 359°
2026-04-21 20:30 43.41845 8.96175 20641 ft 340 kts 359°
2026-04-21 20:30 43.44197 8.96481 20220 ft 339 kts 359°
2026-04-21 20:31 43.46510 8.96786 20146 ft 328 kts 359°
2026-04-21 20:31 43.48752 8.97080 20023 ft 319 kts 358°
2026-04-21 20:31 43.50927 8.97362 19958 ft 308 kts 358°
2026-04-21 20:31 43.53026 8.97635 19941 ft 296 kts 358°
2026-04-21 20:32 43.55039 8.97892 19940 ft 286 kts 357°
2026-04-21 20:32 43.57005 8.98123 19948 ft 284 kts 357°
2026-04-21 20:32 43.58987 8.98346 19966 ft 287 kts 357°
2026-04-21 20:32 43.60998 8.98571 19973 ft 293 kts 357°
2026-04-21 20:33 43.63022 8.98803 19956 ft 289 kts 357°
2026-04-21 20:33 43.64999 8.99036 19944 ft 281 kts 357°
2026-04-21 20:33 43.66926 8.99263 19947 ft 276 kts 357°
2026-04-21 20:33 43.68834 8.99485 19972 ft 275 kts 356°
2026-04-21 20:34 43.70741 8.99705 19924 ft 273 kts 356°
2026-04-21 20:34 43.72625 8.99924 19714 ft 271 kts 356°
2026-04-21 20:34 43.74510 9.00142 19376 ft 272 kts 356°
2026-04-21 20:34 43.76407 9.00362 19036 ft 274 kts 356°
2026-04-21 20:35 43.78303 9.00584 18759 ft 273 kts 356°
2026-04-21 20:35 43.80190 9.00805 18502 ft 271 kts 356°
2026-04-21 20:35 43.82068 9.01027 18226 ft 270 kts 356°
2026-04-21 20:35 43.83944 9.01251 17911 ft 270 kts 356°
2026-04-21 20:36 43.85812 9.01474 17609 ft 269 kts 357°
2026-04-21 20:36 43.87674 9.01696 17346 ft 268 kts 357°
2026-04-21 20:36 43.89520 9.01917 17077 ft 266 kts 357°
2026-04-21 20:36 43.91335 9.02134 16781 ft 265 kts 357°
2026-04-21 20:37 43.93169 9.02353 16488 ft 264 kts 358°
2026-04-21 20:37 43.94999 9.02624 16189 ft 268 kts
2026-04-21 20:37 43.96732 9.03700 16012 ft 282 kts 28°
2026-04-21 20:37 43.98190 9.05623 16001 ft 298 kts 47°
2026-04-21 20:38 43.98906 9.07328 15949 ft 306 kts 63°
2026-04-21 20:38 43.99333 9.10197 15961 ft 312 kts 88°
2026-04-21 20:38 43.98873 9.13141 15960 ft 316 kts 116°
2026-04-21 20:38 43.96982 9.16197 15967 ft 314 kts 152°
2026-04-21 20:39 43.95687 9.17052 15973 ft 309 kts 168°
2026-04-21 20:39 43.93605 9.17464 15963 ft 299 kts 189°
2026-04-21 20:39 43.91535 9.17274 15976 ft 299 kts 191°
2026-04-21 20:39 43.89455 9.17039 15965 ft 299 kts 191°
2026-04-21 20:40 43.87394 9.16819 15952 ft 295 kts 191°
2026-04-21 20:40 43.85378 9.16507 15923 ft 285 kts 204°
2026-04-21 20:40 43.83683 9.15314 15976 ft 268 kts 227°
2026-04-21 20:40 43.82456 9.13442 15958 ft 259 kts 245°
2026-04-21 20:41 43.81741 9.11204 15969 ft 252 kts 262°
2026-04-21 20:41 43.81585 9.08819 15963 ft 248 kts 278°
2026-04-21 20:41 43.81986 9.06520 15965 ft 246 kts 294°
2026-04-21 20:41 43.82886 9.04549 15965 ft 247 kts 310°
2026-04-21 20:42 43.84228 9.03038 15963 ft 251 kts 325°
2026-04-21 20:42 43.85840 9.02056 15961 ft 257 kts 340°
2026-04-21 20:42 43.87652 9.01874 16000 ft 265 kts 356°
2026-04-21 20:42 43.89497 9.02025 15964 ft 266 kts 357°
2026-04-21 20:43 43.91326 9.02200 15896 ft 262 kts 357°
2026-04-21 20:43 43.93131 9.02375 15667 ft 259 kts 357°
2026-04-21 20:43 43.94936 9.02589 15326 ft 264 kts
2026-04-21 20:43 43.96656 9.03613 15039 ft 277 kts 30°
2026-04-21 20:44 43.98059 9.05530 15021 ft 291 kts 49°
2026-04-21 20:44 43.98951 9.08103 14967 ft 303 kts 72°
2026-04-21 20:44 43.99053 9.11033 14959 ft 306 kts 99°
2026-04-21 20:44 43.98273 9.13728 14962 ft 307 kts 127°
2026-04-21 20:45 43.96737 9.15752 14975 ft 305 kts 154°
2026-04-21 20:45 43.94779 9.16755 14971 ft 298 kts 177°
2026-04-21 20:45 43.92742 9.16794 14980 ft 292 kts 190°
2026-04-21 20:45 43.90713 9.16577 14967 ft 293 kts 191°
2026-04-21 20:46 43.88694 9.16349 14952 ft 288 kts 191°
2026-04-21 20:46 43.86727 9.16144 14929 ft 279 kts 191°
2026-04-21 20:46 43.84824 9.15956 14941 ft 270 kts 191°
2026-04-21 20:46 43.82966 9.15775 14859 ft 268 kts 191°
2026-04-21 20:47 43.81196 9.15199 14555 ft 256 kts 215°
2026-04-21 20:47 43.79781 9.13781 14218 ft 248 kts 233°
2026-04-21 20:47 43.78787 9.11894 13931 ft 240 kts 250°
2026-04-21 20:47 43.78284 9.09739 13647 ft 233 kts 266°
2026-04-21 20:48 43.78302 9.07531 13362 ft 227 kts 283°
2026-04-21 20:48 43.78811 9.05483 13079 ft 226 kts 299°
2026-04-21 20:48 43.79768 9.03760 13019 ft 230 kts 315°
2026-04-21 20:48 43.81090 9.02445 12975 ft 236 kts 328°
2026-04-21 20:49 43.82622 9.01626 12908 ft 239 kts 345°
2026-04-21 20:49 43.84289 9.01564 12728 ft 240 kts 357°
2026-04-21 20:49 43.85963 9.01704 12400 ft 242 kts 358°
2026-04-21 20:49 43.87645 9.01858 12139 ft 242 kts 359°
2026-04-21 20:50 43.89291 9.02015 11913 ft 240 kts 359°
2026-04-21 20:50 43.90957 9.02173 11632 ft 240 kts 359°
2026-04-21 20:50 43.92622 9.02331 11365 ft 240 kts 359°
2026-04-21 20:50 43.94283 9.02489 11112 ft 239 kts
2026-04-21 20:51 43.95889 9.03112 10977 ft 246 kts 28°
2026-04-21 20:51 43.97153 9.04756 10960 ft 257 kts 53°
2026-04-21 20:51 43.97831 9.07073 10967 ft 264 kts 80°
2026-04-21 20:51 43.97688 9.09612 10958 ft 269 kts 110°
2026-04-21 20:52 43.96677 9.11760 10962 ft 267 kts 142°
2026-04-21 20:52 43.95065 9.12935 10973 ft 261 kts 171°
2026-04-21 20:52 43.93278 9.13120 10976 ft 257 kts 187°
2026-04-21 20:52 43.91491 9.12941 10975 ft 258 kts 189°
2026-04-21 20:53 43.89693 9.12728 10974 ft 260 kts 189°
2026-04-21 20:53 43.87889 9.12529 10966 ft 261 kts 189°
2026-04-21 20:53 43.86116 9.12144 10937 ft 254 kts 208°
2026-04-21 20:53 43.84754 9.10764 10972 ft 240 kts 238°
2026-04-21 20:54 43.84096 9.08657 10978 ft 242 kts 265°
2026-04-21 20:54 43.84262 9.06369 10963 ft 240 kts 292°
2026-04-21 20:54 43.85206 9.04500 10959 ft 240 kts 319°
2026-04-21 20:54 43.86713 9.03441 10980 ft 252 kts 343°
2026-04-21 20:55 43.88484 9.03092 10974 ft 261 kts 351°
2026-04-21 20:55 43.90299 9.02905 10966 ft 261 kts 352°
2026-04-21 20:55 43.92107 9.02723 10952 ft 260 kts 352°
2026-04-21 20:55 43.93908 9.02918 10946 ft 265 kts 16°
2026-04-21 20:56 43.95506 9.04220 10964 ft 271 kts 38°
2026-04-21 20:56 43.96796 9.06154 10979 ft 274 kts 46°
2026-04-21 20:56 43.97986 9.08184 10965 ft 276 kts 47°
2026-04-21 20:56 43.99217 9.10279 10964 ft 277 kts 46°
2026-04-21 20:57 44.00434 9.12315 10973 ft 278 kts 46°
2026-04-21 20:57 44.01676 9.14374 10954 ft 278 kts 46°
2026-04-21 20:57 44.02880 9.16473 10845 ft 277 kts 49°
2026-04-21 20:57 44.04035 9.18604 10582 ft 276 kts 49°
2026-04-21 20:58 44.05192 9.20743 10274 ft 277 kts 49°
2026-04-21 20:58 44.06346 9.22867 10084 ft 273 kts 49°
2026-04-21 20:58 44.07490 9.24966 9843 ft 272 kts 49°
2026-04-21 20:58 44.08636 9.27064 9582 ft 271 kts 50°
2026-04-21 20:59 44.09761 9.29122 9510 ft 263 kts 49°
2026-04-21 20:59 44.10854 9.31118 9433 ft 255 kts 49°
2026-04-21 20:59 44.11921 9.33065 9269 ft 251 kts 49°
2026-04-21 20:59 44.12982 9.34996 9027 ft 251 kts 48°
2026-04-21 21:00 44.14302 9.36489 8741 ft 243 kts 17°
2026-04-21 21:00 44.15915 9.36765 8498 ft 235 kts 349°
2026-04-21 21:00 44.17440 9.36040 8234 ft 232 kts 327°
2026-04-21 21:00 44.18744 9.34734 7996 ft 231 kts 321°
2026-04-21 21:01 44.20019 9.33370 7748 ft 231 kts 321°
2026-04-21 21:01 44.21315 9.31987 7503 ft 231 kts 321°
2026-04-21 21:01 44.22573 9.30641 7282 ft 231 kts 322°
2026-04-21 21:01 44.23853 9.29281 7062 ft 231 kts 322°
2026-04-21 21:02 44.25141 9.27915 6761 ft 234 kts 322°
2026-04-21 21:02 44.26435 9.26544 6567 ft 232 kts 322°
2026-04-21 21:02 44.27717 9.25187 6356 ft 231 kts 323°
2026-04-21 21:02 44.29003 9.23826 6087 ft 232 kts 322°
2026-04-21 21:03 44.30282 9.22472 5910 ft 229 kts 323°
2026-04-21 21:03 44.31551 9.21130 5627 ft 230 kts 323°
2026-04-21 21:03 44.32831 9.19773 5336 ft 231 kts 321°
2026-04-21 21:03 44.33833 9.18023 4970 ft 235 kts 290°
2026-04-21 21:04 44.34323 9.15841 4645 ft 237 kts 288°
2026-04-21 21:04 44.34832 9.13629 4314 ft 241 kts 288°
2026-04-21 21:04 44.35331 9.11389 3979 ft 242 kts 287°
2026-04-21 21:04 44.35807 9.09174 3627 ft 240 kts 286°
2026-04-21 21:05 44.36283 9.06978 3283 ft 232 kts 287°
2026-04-21 21:05 44.36746 9.04857 2958 ft 224 kts 287°
2026-04-21 21:05 44.37189 9.02809 2650 ft 216 kts 287°
2026-04-21 21:05 44.37617 9.00834 2349 ft 209 kts 287°
2026-04-21 21:06 44.38030 8.98928 2067 ft 200 kts 287°
2026-04-21 21:06 44.38423 8.97119 1776 ft 188 kts 287°
2026-04-21 21:06 44.38791 8.95426 1522 ft 177 kts 287°
2026-04-21 21:06 44.39139 8.93835 1305 ft 164 kts 286°
2026-04-21 21:07 44.39499 8.92384 1048 ft 154 kts 289°
2026-04-21 21:07 44.39837 8.90992 814 ft 149 kts 287°
2026-04-21 21:07 44.40138 8.89610 630 ft 149 kts 283°
2026-04-21 21:07 44.40404 8.88224 435 ft 150 kts 284°
2026-04-21 21:08 44.40683 8.86789 242 ft 152 kts 283°
2026-04-21 21:08 44.40961 8.85382 33 ft 149 kts 283°
2026-04-21 21:08 44.41200 8.84159 22 ft 102 kts 285°
2026-04-21 21:08 44.41336 8.83464 20 ft 53 kts 285°
2026-04-21 21:09 44.41447 8.83123 20 ft 20 kts 319°
2026-04-21 21:09 44.41501 8.83086 20 ft 4 kts
2026-04-21 21:09 44.41528 8.83101 21 ft 4 kts 30°
2026-04-21 21:09 44.41547 8.83135 19 ft 5 kts 69°
2026-04-21 21:10 44.41545 8.83181 19 ft 5 kts 109°
2026-04-21 21:10 44.41535 8.83230 19 ft 5 kts 104°
2026-04-21 21:10 44.41526 8.83280 22 ft 6 kts 104°
2026-04-21 21:10 44.41513 8.83348 21 ft 9 kts 107°
2026-04-21 21:11 44.41491 8.83451 19 ft 12 kts 106°
2026-04-21 21:11 44.41470 8.83568 20 ft 12 kts 104°
2026-04-21 21:11 44.41446 8.83685 19 ft 14 kts 108°
2026-04-21 21:11 44.41417 8.83839 19 ft 17 kts 107°
2026-04-21 21:12 44.41384 8.83989 21 ft 15 kts 105°
2026-04-21 21:12 44.41360 8.84130 19 ft 15 kts 104°
2026-04-21 21:12 44.41330 8.84275 19 ft 16 kts 105°
2026-04-21 21:12 44.41325 8.84422 19 ft 15 kts 59°
2026-04-21 21:13 44.41385 8.84534 19 ft 14 kts 52°
2026-04-21 21:13 44.41409 8.84654 19 ft 13 kts 105°
2026-04-21 21:13 44.41385 8.84776 21 ft 13 kts 105°
2026-04-21 21:13 44.41361 8.84897 19 ft 13 kts 105°
2026-04-21 21:14 44.41342 8.85013 21 ft 12 kts 104°
2026-04-21 21:14 44.41322 8.85122 19 ft 10 kts 105°
2026-04-21 21:14 44.41309 8.85188 19 ft 5 kts 104°
2026-04-21 21:14 44.41303 8.85222 19 ft 3 kts 104°
2026-04-21 21:15 44.41298 8.85249 20 ft 2 kts 102°
2026-04-21 21:15 44.41316 8.85279 19 ft 6 kts 15°
2026-04-21 21:15 44.41319 8.85279 19 ft 1 kts 13°
2026-04-21 21:15 44.41334 8.85285 19 ft 2 kts 14°
2026-04-21 21:16 44.41339 8.85287 19 ft 0 kts 14°